DW9987 Weather Reports


Display with metric or nautical units.
time (UTC)temp
F
wind
direction
speed
MPH
gust
MPH
rain 1hr
in
rain 24hr
in
rain mn
in
humidity
%
barometer
mb
20260904040016 77 205 0.0 0.0 0.00 0.00 0.00 93 1012.4
20260904034518 77 205 0.0 0.0 0.00 0.00 0.00 92 1012.4
20260904033015 78 205 0.0 0.0 0.00 0.00 0.00 92 1012.3
20260904031514 78 205 0.0 0.0 0.00 0.00 0.00 92 1012.4
20260904030014 78 205 0.0 0.0 0.00 0.00 0.00 92 1012.4
20260904024515 78 205 0.0 0.0 0.00 0.00 0.00 91 1012.4
20260904023013 79 205 0.0 0.0 0.00 0.00 0.00 91 1012.3
20260904021516 79 205 0.0 0.0 0.00 0.00 0.00 90 1012.1
20260904020012 79 205 0.0 0.0 0.00 0.00 0.00 90 1012.1
20260904014515 80 205 0.0 0.0 0.00 0.00 0.00 90 1011.9
20260904013011 80 205 0.0 0.0 0.00 0.00 0.00 89 1011.7
20260904011517 80 205 0.0 0.0 0.00 0.00 0.00 88 1011.2
20260904010011 81 205 0.0 0.0 0.00 0.00 0.00 87 1010.8
20260904004510 81 205 0.0 0.0 0.00 0.00 0.00 87 1010.5
20260904003012 82 211 0.0 0.0 0.00 0.00 0.00 86 1010.3
20260904001511 82 211 0.0 1.0 0.00 0.00 0.00 85 1010.4
20260904000006 83 210 0.0 2.0 0.00 0.00 0.00 84 1010.7
20260903234504 84 218 0.0 0.0 0.00 0.00 0.00 82 1010.8
20260903233003 85 219 0.0 0.0 0.00 0.00 0.00 81 1010.9
20260903231507 86 219 0.0 0.0 0.00 0.00 0.00 79 1011.0
20260903230001 87 200 0.0 2.0 0.00 0.00 0.00 76 1011.2
20260903224622 89 200 0.0 2.0 0.00 0.00 0.00 73 1011.2
20260903223059 89 203 0.0 4.0 0.00 0.00 0.00 68 1011.3
20260903221559 89 207 1.0 3.0 0.00 0.00 0.00 67 1011.5
20260903220059 89 191 1.0 5.0 0.00 0.00 0.00 66 1011.5
20260903214610 90 188 1.0 3.0 0.00 0.00 0.00 70 1011.5
20260903213102 91 211 1.0 6.0 0.00 0.00 0.00 63 1011.5
20260903211555 91 200 2.0 6.0 0.00 0.00 0.00 61 1011.5
20260903210123 91 200 0.0 4.0 0.00 0.00 0.00 66 1011.7
20260903204552 91 183 0.0 4.0 0.00 0.00 0.00 67 1011.9
20260903203106 91 211 1.0 7.0 0.00 0.00 0.00 64 1012.0
20260903201548 91 202 0.0 4.0 0.00 0.00 0.00 67 1012.0
20260903200051 90 234 0.0 3.0 0.00 0.00 0.00 64 1012.1
20260903194543 90 202 0.0 3.0 0.00 0.00 0.00 65 1012.4
20260903193041 90 259 1.0 4.0 0.00 0.00 0.00 64 1012.6
20260903191541 90 199 0.0 4.0 0.00 0.00 0.00 65 1012.7
20260903190039 89 288 0.0 3.0 0.00 0.00 0.00 65 1012.8
20260903184538 90 302 0.0 2.0 0.00 0.00 0.00 64 1012.8
20260903183034 89 294 0.0 2.0 0.00 0.00 0.00 66 1012.9
20260903181533 88 42 0.0 4.0 0.00 0.00 0.00 71 1013.1
20260903180034 87 346 1.0 9.0 0.00 0.00 0.00 69 1013.2
20260903174533 87 350 0.0 7.0 0.00 0.00 0.00 72 1013.4
20260903173033 87 355 5.0 11.0 0.00 0.00 0.00 68 1013.4
20260903171531 87 26 2.0 12.0 0.00 0.00 0.00 68 1013.5
20260903170030 86 36 4.0 12.0 0.00 0.00 0.00 68 1013.7
20260903164529 85 13 5.0 15.0 0.00 0.00 0.00 70 1013.6
20260903163029 86 11 3.0 9.0 0.00 0.00 0.00 71 1013.6
20260903161527 87 346 1.0 5.0 0.00 0.00 0.00 70 1013.6
20260903160026 88 313 2.0 5.0 0.00 0.00 0.00 69 1013.6
20260903154524 88 23 0.0 2.0 0.00 0.00 0.00 69 1012.8
20260903153021 87 175 1.0 5.0 0.00 0.00 0.00 69 1012.7
20260903151517 85 277 0.0 3.0 0.00 0.00 0.00 72 1012.7
20260903150021 85 195 0.0 7.0 0.00 0.00 0.00 73 1012.8
20260903144515 85 235 0.0 4.0 0.00 0.00 0.00 72 1012.8
20260903143012 84 144 0.0 3.0 0.00 0.00 0.00 74 1012.7
20260903141511 83 256 0.0 4.0 0.00 0.00 0.00 74 1012.8
20260903140007 82 229 1.0 6.0 0.00 0.00 0.00 76 1012.6
20260903134502 81 184 1.0 5.0 0.00 0.00 0.00 79 1012.6
20260903133002 80 205 0.0 7.0 0.00 0.00 0.00 80 1012.7
20260903131601 80 178 1.0 5.0 0.00 0.00 0.00 79 1012.7
20260903130059 79 223 0.0 5.0 0.00 0.00 0.00 81 1012.9
20260903124605 77 213 1.0 3.0 0.00 0.00 0.00 84 1012.9
20260903123058 76 188 1.0 4.0 0.00 0.00 0.00 86 1013.0
20260903121558 76 205 0.0 3.0 0.00 0.00 0.00 85 1013.0
20260903120104 78 199 0.0 1.0 0.00 0.00 0.00 83 1012.9
20260903114559 78 199 0.0 2.0 0.00 0.00 0.00 80 1012.8
20260903113056 79 219 0.0 2.0 0.00 0.00 0.00 80 1012.7
20260903111553 79 222 0.0 5.0 0.00 0.00 0.00 79 1012.6
20260903110056 79 237 0.0 5.0 0.00 0.00 0.00 80 1012.5
20260903104557 78 229 1.0 7.0 0.00 0.00 0.00 80 1012.6
20260903103052 78 266 1.0 5.0 0.00 0.00 0.00 81 1012.5
20260903101601 78 202 0.0 5.0 0.00 0.00 0.00 81 1012.5
20260903100049 78 200 1.0 3.0 0.00 0.00 0.00 82 1012.5
20260903094548 77 211 0.0 4.0 0.00 0.00 0.00 84 1012.6
20260903093104 77 192 0.0 5.0 0.00 0.00 0.00 85 1012.6
20260903091547 76 194 1.0 5.0 0.00 0.00 0.00 86 1012.5
20260903090048 76 202 1.0 3.0 0.00 0.00 0.00 87 1012.3
20260903084545 76 200 0.0 3.0 0.00 0.00 0.00 89 1012.3
20260903083044 75 242 0.0 2.0 0.00 0.00 0.00 92 1012.3
20260903081544 74 258 0.0 1.0 0.00 0.00 0.00 93 1012.4
20260903080043 74 259 0.0 0.0 0.00 0.00 0.00 93 1012.4
20260903074542 74 259 0.0 0.0 0.00 0.00 0.00 92 1012.3
20260903073041 75 259 0.0 0.0 0.00 0.00 0.00 92 1012.3
20260903071540 75 259 0.0 0.0 0.00 0.00 0.00 92 1012.3
20260903070038 75 259 0.0 0.0 0.00 0.00 0.00 91 1012.2
20260903064539 75 259 0.0 0.0 0.00 0.00 0.00 91 1012.3
20260903063105 76 259 0.0 0.0 0.00 0.00 0.00 90 1012.4
20260903061534 76 259 0.0 0.0 0.00 0.00 0.00 90 1012.4
20260903060031 77 259 0.0 0.0 0.00 0.00 0.00 89 1012.4
20260903054529 77 259 0.0 0.0 0.00 0.00 0.00 88 1012.5
20260903053026 78 259 0.0 0.0 0.00 0.00 0.00 87 1012.3
20260903051524 79 259 0.0 0.0 0.00 0.00 0.00 85 1012.4
20260903050019 80 259 0.0 0.0 0.00 0.00 0.00 83 1012.2
20260903044519 81 259 0.0 0.0 0.00 0.00 0.00 81 1012.1
20260903043018 83 259 0.0 0.0 0.00 0.00 0.00 77 1012.2
20260903041522 83 259 0.0 2.0 0.00 0.00 0.00 75 1012.2